Simultaneous Nadir Overpasses (SNOs) Predictions

Prediction of SNOs between GOES-16 and TERRA Satellite Orbit:

Table of predicted SNOs for the next 14.0 days since TLE Epoch: 12/1/2024
Index Date Time (GOES-16) GOES-16 Lat,Lon TERRA Lat,Lon Distance(km) Time Diff (sec)
1 12/01/2024 14:31:33 -0.04, -75.21 -0.26, -74.16 119.20 80
2 12/02/2024 02:54:02 0.03, -75.19 -0.77, -78.98 431.35 80
3 12/04/2024 02:33:03 0.03, -75.19 0.15, -74.56 70.87 80
4 12/04/2024 14:55:23 -0.03, -75.22 0.84, -79.35 470.15 80
5 12/06/2024 14:34:23 -0.02, -75.23 -0.07, -74.93 33.14 80
6 12/09/2024 02:38:31 0.02, -75.22 -0.03, -75.33 12.83 80
7 12/11/2024 02:17:30 0.01, -75.24 0.92, -70.91 492.75 80
8 12/11/2024 14:39:50 -0.01, -75.27 0.07, -75.69 47.35 80
9 12/13/2024 14:18:47 -0.00, -75.30 -0.82, -71.25 458.78 80
10 12/14/2024 02:41:16 0.00, -75.28 -0.17, -76.08 90.84 80
